Kekaha, HI

5:16 AM HST on August 29, 2016 (GMT -1000)
Barking Sands PMRF

Weather History for PHBK - April, 2013

Change the Weather History Date:

Sunday, April 21, 2013

  Actual Average Record
Temperature  
Mean Temperature 74 °F -  
Max Temperature 78 °F 83 °F 87 °F (1975)
Min Temperature 70 °F 63 °F 60 °F (1950)
Cooling Degree Days 9    
Growing Degree Days 24 (Base 50)    
Moisture  
Dew Point 68 °F    
Average Humidity 84    
Maximum Humidity 94    
Minimum Humidity 73    
Precipitation  
Precipitation 0.14 in - - ()
Sea Level Pressure  
Sea Level Pressure 30.00 in    
Wind  
Wind Speed 3 mph (SE)    
Max Wind Speed 10 mph    
Max Gust Speed -    
Visibility 9 miles    
Events Rain    
Averages and records for this station are not official NWS values.
T = Trace of Precipitation, MM = Missing Value Source: NWS Daily Summary

Daily Weather History Graph

Daily Weather History Graph

Search for Another Location

Airport or City:

Trip Planner

Search our weather history database for the weather conditions in past years. The results will help you decide how hot, cold, wet, or windy it might be!

Date:

Astronomy

Apr. 21, 2013 Rise Set
Actual Time 6:14 AM HST 7:01 PM HST
Civil Twilight 5:51 AM HST 7:24 PM HST
Nautical Twilight 5:24 AM HST 7:51 PM HST
Astronomical Twilight 4:56 AM HST 8:19 PM HST
Moon 3:25 PM HST (4/21) 3:12 AM HST (4/21)
Length of Visible Light 13h 33m
Length of Day
12h 47m
Waxing Gibbous, 82% of the Moon is Illuminated
Apr 21
Waxing Gibbous
Apr 25
Full
May 2
Last Quarter
May 9
New
May 17
First Quarter

Hourly Weather History & Observations

Time (HST) Temp. Dew Point Humidity Pressure Visibility Wind Dir Wind Speed Gust Speed Precip Events Conditions
12:56 AM 72.0 °F 69.1 °F 91% 30.02 in 10.0 mi Calm Calm - N/A   Mostly Cloudy
1:18 AM 71.6 °F 69.8 °F 94% 30.00 in 10.0 mi ESE 3.5 mph - N/A   Overcast
1:56 AM 72.0 °F 69.1 °F 91% 30.00 in 9.0 mi East 3.5 mph - 0.00 in Rain Light Rain
2:09 AM 71.6 °F 69.8 °F 94% 29.98 in 10.0 mi SE 3.5 mph - 0.00 in   Overcast
2:56 AM 72.0 °F 69.1 °F 91% 29.98 in 10.0 mi Calm Calm - 0.00 in   Overcast
3:34 AM 71.6 °F 68.0 °F 88% 29.97 in 10.0 mi SE 4.6 mph - N/A   Mostly Cloudy
3:56 AM 72.0 °F 68.0 °F 87% 29.97 in 10.0 mi Calm Calm - N/A   Mostly Cloudy
4:20 AM 71.6 °F 68.0 °F 88% 29.96 in 10.0 mi Calm Calm - 0.00 in   Overcast
4:56 AM 71.1 °F 69.1 °F 93% 29.97 in 10.0 mi East 3.5 mph - 0.01 in   Overcast
5:15 AM 71.6 °F 68.0 °F 88% 29.97 in 10.0 mi SE 3.5 mph - N/A   Overcast
5:23 AM 71.6 °F 69.8 °F 94% 29.97 in 10.0 mi ESE 4.6 mph - N/A   Overcast
5:56 AM 72.0 °F 69.1 °F 91% 29.99 in 7.0 mi SSE 4.6 mph - 0.01 in Rain Light Rain
6:06 AM 71.6 °F 66.2 °F 83% 29.98 in 10.0 mi South 10.4 mph - 0.00 in   Overcast
6:56 AM 71.1 °F 68.0 °F 90% 30.01 in 5.0 mi SE 5.8 mph - 0.01 in Rain Rain
7:56 AM 72.0 °F 68.0 °F 87% 30.03 in 4.0 mi Calm Calm - 0.05 in Rain Light Rain
8:56 AM 72.0 °F 69.1 °F 91% 30.04 in 9.0 mi SE 5.8 mph - 0.05 in Rain Light Rain
9:56 AM 73.9 °F 69.1 °F 85% 30.04 in 10.0 mi SE 6.9 mph - 0.01 in   Overcast
10:56 AM 77.0 °F 69.1 °F 76% 30.03 in 10.0 mi South 8.1 mph - N/A   Partly Cloudy
11:56 AM 77.0 °F 68.0 °F 74% 30.03 in 10.0 mi South 5.8 mph - 0.00 in   Partly Cloudy
12:56 PM 78.1 °F 69.1 °F 74% 30.01 in 9.0 mi SSE 6.9 mph - 0.00 in Rain Light Rain
1:56 PM 78.1 °F 69.1 °F 74% 29.99 in 9.0 mi SSE 8.1 mph - 0.00 in   Mostly Cloudy
2:56 PM 77.0 °F 69.1 °F 76% 29.97 in 9.0 mi SSW 6.9 mph - N/A   Partly Cloudy
3:56 PM 77.0 °F 68.0 °F 74% 29.97 in 9.0 mi South 5.8 mph - N/A   Mostly Cloudy
4:56 PM 77.0 °F 68.0 °F 74% 29.96 in 8.0 mi SW 5.8 mph - N/A   Partly Cloudy
5:56 PM 75.9 °F 66.9 °F 74% 29.98 in 10.0 mi South 5.8 mph - N/A   Clear
6:56 PM 75.0 °F 66.0 °F 73% 29.99 in 10.0 mi Calm Calm - N/A   Clear
7:56 PM 75.0 °F 66.9 °F 76% 30.01 in 9.0 mi Calm Calm - N/A   Clear
8:56 PM 71.1 °F 64.9 °F 81% 30.03 in 10.0 mi ENE 3.5 mph - N/A   Clear
9:56 PM 71.1 °F 63.0 °F 75% 30.04 in 10.0 mi ENE 3.5 mph - N/A   Clear
10:56 PM 70.0 °F 64.0 °F 81% 30.04 in 10.0 mi East 3.5 mph - N/A   Clear
11:56 PM 70.0 °F 64.0 °F 81% 30.02 in 10.0 mi ENE 4.6 mph - N/A   Mostly Cloudy